ON7LDS-13 Weather Reports


Display with metric or nautical units.
time (UTC)temp
F
wind
direction
speed
MPH
gust
MPH
rain 1hr
in
rain 24hr
in
rain mn
in
humidity
%
barometer
mb
20260503020621 56 0.0 0.0 0.00 0.00 0.00 1 1016.6
20260503015521 56 0.0 0.0 0.00 0.00 0.00 1 1016.6
20260503014520 56 0.0 0.0 0.00 0.00 0.00 1 1016.7
20260503013621 56 0.0 0.0 0.00 0.00 0.00 1 1016.9
20260503012612 57 0.0 0.0 0.00 0.00 0.00 1 1016.9
20260503011551 57 0.0 0.0 0.00 0.00 0.00 1 1016.8
20260503010522 57 0.0 0.0 0.00 0.00 0.00 1 1016.8
20260503005520 56 0.0 0.0 0.00 0.00 0.00 2 1017.0
20260503004620 56 0.0 0.0 0.00 0.00 0.00 7 1017.1
20260503003552 57 0.0 0.0 0.00 0.00 0.00 10 1017.1
20260503002542 57 0.0 0.0 0.00 0.00 0.00 11 1017.3
20260503001550 58 0.0 0.0 0.00 0.00 0.00 14 1017.5
20260503000520 58 0.0 0.0 0.00 0.00 0.00 16 1017.6
20260502235550 58 0.0 0.0 0.00 0.00 0.00 17 1017.8
20260502234609 59 0.0 0.0 0.00 0.00 0.00 18 1017.8
20260502233549 59 0.0 0.0 0.00 0.00 0.00 23 1017.8
20260502232521 60 0.0 0.0 0.00 0.00 0.00 27 1017.9
20260502231549 60 0.0 0.0 0.00 0.00 0.00 28 1018.0
20260502230621 60 0.0 0.0 0.00 0.00 0.00 26 1017.8
20260502225549 60 0.0 0.0 0.00 0.00 0.00 24 1017.9
20260502224619 60 0.0 0.0 0.00 0.00 0.00 24 1017.9
20260502223619 60 0.0 0.0 0.00 0.00 0.00 23 1017.9
20260502222659 60 0.0 0.0 0.00 0.00 0.00 22 1017.9
20260502221549 60 0.0 0.0 0.00 0.00 0.00 24 1017.9
20260502220519 60 0.0 0.0 0.00 0.00 0.00 28 1017.9
20260502215548 60 0.0 0.0 0.00 0.00 0.00 33 1018.0
20260502214550 61 0.0 0.0 0.00 0.00 0.00 38 1018.0
20260502213548 62 0.0 0.0 0.00 0.00 0.00 40 1018.1
20260502212549 62 0.0 0.0 0.00 0.00 0.00 41 1018.1
20260502211548 62 0.0 0.0 0.00 0.00 0.00 44 1018.0
20260502210548 63 0.0 0.0 0.00 0.00 0.00 49 1018.1
20260502205518 64 0.0 0.0 0.00 0.00 0.00 55 1018.9
20260502204518 65 0.0 0.0 0.00 0.00 0.00 57 1019.1
20260502203538 65 0.0 0.0 0.00 0.00 0.00 56 1018.5
20260502202618 66 0.0 0.0 0.00 0.00 0.00 55 1018.4
20260502201518 66 0.0 0.0 0.00 0.00 0.00 58 1018.1
20260502200548 67 0.0 0.0 0.00 0.00 0.00 60 1018.0
20260502195658 67 0.0 0.0 0.00 0.00 0.00 60 1018.0
20260502194618 67 0.0 0.0 0.00 0.00 0.00 60 1017.9
20260502193549 68 0.0 0.0 0.00 0.00 0.00 60 1018.1
20260502192547 68 0.0 0.0 0.00 0.00 0.00 60 1018.2
20260502191517 68 0.0 0.0 0.00 0.00 0.00 59 1018.0
20260502190547 69 0.0 0.0 0.00 0.00 0.00 58 1018.0
20260502185547 69 0.0 0.0 0.00 0.00 0.00 57 1017.9
20260502184619 70 0.0 0.0 0.00 0.00 0.00 56 1018.0
20260502183519 71 0.0 0.0 0.00 0.00 0.00 56 1018.0
20260502182547 71 0.0 0.0 0.00 0.00 0.00 55 1018.0
20260502181618 72 0.0 0.0 0.00 0.00 0.00 55 1018.2
20260502180637 73 0.0 0.0 0.00 0.00 0.00 54 1018.1
20260502163547 74 0.0 0.0 0.00 0.00 0.00 52 1018.8
20260502162626 74 0.0 0.0 0.00 0.00 0.00 53 1019.0
20260502161617 74 0.0 0.0 0.00 0.00 0.00 53 1019.1
20260502160616 75 0.0 0.0 0.00 0.00 0.00 52 1019.1
20260502151637 76 0.0 0.0 0.00 0.00 0.00 52 1019.8
20260502150546 77 0.0 0.0 0.00 0.00 0.00 52 1020.0
20260502130544 76 0.0 0.0 0.00 0.00 0.00 55 1021.7
20260502123544 75 0.0 0.0 0.00 0.00 0.00 56 1021.9
20260502122614 74 0.0 0.0 0.00 0.00 0.00 56 1022.2
20260502121544 74 0.0 0.0 0.00 0.00 0.00 56 1022.2
20260502120614 74 0.0 0.0 0.00 0.00 0.00 57 1022.3
20260502115614 74 0.0 0.0 0.00 0.00 0.00 57 1022.5
20260502114615 74 0.0 0.0 0.00 0.00 0.00 58 1022.6
20260502113544 73 0.0 0.0 0.00 0.00 0.00 58 1022.7
20260502112605 73 0.0 0.0 0.00 0.00 0.00 57 1022.8
20260502111545 73 0.0 0.0 0.00 0.00 0.00 57 1022.8
20260502110545 73 0.0 0.0 0.00 0.00 0.00 57 1023.0
20260502105604 73 0.0 0.0 0.00 0.00 0.00 58 1023.0
20260502104613 73 0.0 0.0 0.00 0.00 0.00 57 1023.0
20260502103603 72 0.0 0.0 0.00 0.00 0.00 58 1023.0
20260502102543 71 0.0 0.0 0.00 0.00 0.00 59 1023.3
20260502101545 72 0.0 0.0 0.00 0.00 0.00 59 1023.3
20260502100613 71 0.0 0.0 0.00 0.00 0.00 59 1023.4
20260502090602 68 0.0 0.0 0.00 0.00 0.00 59 1023.7
20260502070641 62 0.0 0.0 0.00 0.00 0.00 60 1024.1
20260502065613 61 0.0 0.0 0.00 0.00 0.00 60 1024.2
20260502064541 61 0.0 0.0 0.00 0.00 0.00 60 1024.2
20260502063541 60 0.0 0.0 0.00 0.00 0.00 61 1024.2
20260502062541 59 0.0 0.0 0.00 0.00 0.00 61 1024.2
20260502061541 59 0.0 0.0 0.00 0.00 0.00 60 1024.2
20260502060542 57 0.0 0.0 0.00 0.00 0.00 60 1024.2
20260502055541 57 0.0 0.0 0.00 0.00 0.00 61 1024.0
20260502054611 56 0.0 0.0 0.00 0.00 0.00 61 1023.9
20260502053541 56 0.0 0.0 0.00 0.00 0.00 61 1023.9
20260502052541 56 0.0 0.0 0.00 0.00 0.00 61 1023.8
20260502051603 55 0.0 0.0 0.00 0.00 0.00 62 1023.9
20260502050541 54 0.0 0.0 0.00 0.00 0.00 62 1023.8
20260502045541 54 0.0 0.0 0.00 0.00 0.00 62 1023.8
20260502044540 54 0.0 0.0 0.00 0.00 0.00 61 1023.8
20260502043540 53 0.0 0.0 0.00 0.00 0.00 61 1023.7
20260502042640 53 0.0 0.0 0.00 0.00 0.00 61 1023.8
20260502041540 53 0.0 0.0 0.00 0.00 0.00 60 1023.8
20260502040540 53 0.0 0.0 0.00 0.00 0.00 60 1023.9
20260502035540 53 0.0 0.0 0.00 0.00 0.00 61 1024.0
20260502034540 52 0.0 0.0 0.00 0.00 0.00 61 1024.0
20260502033540 52 0.0 0.0 0.00 0.00 0.00 61 1024.0
20260502032600 52 0.0 0.0 0.00 0.00 0.00 62 1024.0
20260502031609 51 0.0 0.0 0.00 0.00 0.00 62 1023.9
20260502030641 51 0.0 0.0 0.00 0.00 0.00 62 1023.9
20260502025539 51 0.0 0.0 0.00 0.00 0.00 62 1024.0
20260502024539 50 0.0 0.0 0.00 0.00 0.00 62 1024.0
20260502023609 50 0.0 0.0 0.00 0.00 0.00 62 1024.2
20260502022609 50 0.0 0.0 0.00 0.00 0.00 61 1024.1
20260502021539 51 0.0 0.0 0.00 0.00 0.00 61 1024.2